Location: Góry Miechowskie
(50.3599°N, 20.1803°E)
Time: 03:41:40
(UTC+00:00)

Transit 2A Rocket - Pass Details

Date: 20 September 2024
Orbit: 582 x 908 km, 66.7° (Epoch: 10 October)

Event Time Altitude Azimuth Distance (km) Brightness Sun altitude
Rises 02:42:55 0° 316° (NW) 3,541 8.2 -16.3°
Reaches altitude 10° 02:46:12 10° 332° (NNW) 2,579 7.7 -15.9°
Maximum altitude 02:50:33 20° 19° (NNE) 1,904 7.5 -15.2°
Drops below altitude 10° 02:54:45 10° 66° (ENE) 2,469 9.1 -14.6°
Sets 02:57:49 0° 83° (E) 3,345 10.0 -14.1°
